| time (UTC) | temp F | wind direction | speed knots | gust knots | rain 1hr in | rain 24hr in | rain mn in | humidity % | barometer mb |
| 20260505181241 | 37 | 267 | 0.9 | 5.2 | 0.06 | 0.09 | 0.07 | 94 | 1015.4 |
| 20260505175741 | 37 | 272 | 0.0 | 2.6 | 0.02 | 0.04 | 0.02 | 93 | 1015.6 |
| 20260505174241 | 37 | 338 | 0.9 | 5.2 | 0.01 | 0.03 | 0.01 | 92 | 1015.3 |
| 20260505173437 | 37 | 340 | 0.9 | 4.3 | 0.01 | 0.03 | 0.01 | 92 | 1015.7 |
| 20260505171243 | 37 | 345 | 2.6 | 5.2 | 0.01 | 0.03 | 0.01 | 92 | 1015.7 |
| 20260505165743 | 37 | 326 | 0.9 | 4.3 | 0.00 | 0.02 | 0.00 | 92 | 1015.6 |
| 20260505165635 | 36 | 2 | 2.6 | 6.1 | 0.00 | 0.02 | 0.00 | 92 | 1015.6 |
| 20260505162734 | 37 | 331 | 1.7 | 5.2 | 0.00 | 0.02 | 0.00 | 92 | 1015.4 |
| 20260505161235 | 37 | 358 | 2.6 | 7.0 | 0.00 | 0.02 | 0.00 | 92 | 1015.6 |
| 20260505152734 | 37 | 349 | 0.9 | 4.3 | 0.00 | 0.02 | 0.00 | 91 | 1015.7 |
| 20260505151229 | 38 | 321 | 1.7 | 4.3 | 0.00 | 0.02 | 0.00 | 90 | 1015.7 |
| 20260505124222 | 42 | 122 | 2.6 | 7.8 | 0.00 | 0.02 | 0.00 | 84 | 1014.7 |
| 20260505122725 | 42 | 127 | 3.5 | 6.1 | 0.00 | 0.02 | 0.00 | 83 | 1014.5 |
| 20260505121223 | 43 | 134 | 2.6 | 5.2 | 0.00 | 0.02 | 0.00 | 81 | 1014.2 |
| 20260505115723 | 43 | 134 | 1.7 | 5.2 | 0.00 | 0.02 | 0.00 | 80 | 1014.2 |
| 20260505114916 | 43 | 134 | 1.7 | 5.2 | 0.00 | 0.02 | 0.00 | 81 | 1014.2 |
| 20260505112721 | 44 | 134 | 1.7 | 4.3 | 0.00 | 0.02 | 0.00 | 82 | 1014.0 |
| 20260505111219 | 44 | 134 | 0.9 | 4.3 | 0.00 | 0.02 | 0.00 | 83 | 1013.7 |
| 20260505095715 | 43 | 133 | 0.9 | 3.5 | 0.00 | 0.02 | 0.00 | 90 | 1013.7 |
| 20260505094215 | 44 | 133 | 0.0 | 1.7 | 0.00 | 0.02 | 0.00 | 89 | 1013.7 |
| 20260505092715 | 44 | 133 | 0.0 | 0.9 | 0.00 | 0.02 | 0.00 | 88 | 1013.5 |
| 20260505091215 | 44 | 133 | 0.0 | 2.6 | 0.00 | 0.02 | 0.00 | 88 | 1013.8 |
| 20260505090403 | 45 | 113 | 0.0 | 0.9 | 0.00 | 0.02 | 0.00 | 89 | 1013.7 |
| 20260505084909 | 45 | 330 | 0.0 | 0.9 | 0.00 | 0.02 | 0.00 | 89 | 1014.3 |
| 20260505082713 | 45 | 42 | 0.0 | 0.0 | 0.00 | 0.02 | 0.00 | 88 | 1014.3 |
| 20260505081211 | 45 | 46 | 0.0 | 4.3 | 0.00 | 0.02 | 0.00 | 88 | 1014.5 |
| 20260505075710 | 46 | 324 | 0.9 | 3.5 | 0.00 | 0.02 | 0.00 | 88 | 1014.6 |
| 20260505074210 | 46 | 338 | 0.9 | 2.6 | 0.00 | 0.02 | 0.00 | 88 | 1014.6 |
| 20260505072711 | 45 | 343 | 1.7 | 5.2 | 0.00 | 0.02 | 0.00 | 88 | 1014.7 |
| 20260505071208 | 46 | 354 | 1.7 | 5.2 | 0.00 | 0.02 | 0.00 | 87 | 1014.7 |
| 20260505065709 | 46 | 22 | 0.9 | 4.3 | 0.00 | 0.02 | 0.00 | 87 | 1014.8 |
| 20260505064209 | 46 | 357 | 1.7 | 4.3 | 0.01 | 0.02 | 0.00 | 87 | 1014.8 |
| 20260505062709 | 46 | 2 | 0.0 | 3.5 | 0.01 | 0.02 | 0.00 | 88 | 1015.1 |
| 20260505061907 | 46 | 25 | 1.7 | 4.3 | 0.01 | 0.02 | 0.00 | 85 | 1014.8 |
| 20260505055708 | 46 | 28 | 0.9 | 4.3 | 0.01 | 0.02 | 0.02 | 85 | 1015.2 |
| 20260505054208 | 47 | 10 | 0.9 | 5.2 | 0.00 | 0.01 | 0.01 | 82 | 1015.2 |
| 20260505052707 | 47 | 300 | 2.6 | 7.0 | 0.00 | 0.01 | 0.01 | 79 | 1015.3 |
| 20260505051207 | 47 | 321 | 3.5 | 7.8 | 0.00 | 0.01 | 0.01 | 78 | 1015.3 |
| 20260505041208 | 47 | 347 | 5.2 | 13.9 | 0.00 | 0.01 | 0.01 | 78 | 1014.2 |
| 20260505035707 | 48 | 348 | 3.5 | 10.4 | 0.00 | 0.01 | 0.01 | 76 | 1014.3 |
| 20260505034206 | 48 | 350 | 4.3 | 10.4 | 0.00 | 0.01 | 0.01 | 75 | 1014.2 |
| 20260505032706 | 49 | 328 | 4.3 | 10.4 | 0.00 | 0.01 | 0.01 | 74 | 1014.2 |
| 20260505031203 | 49 | 352 | 4.3 | 11.3 | 0.00 | 0.01 | 0.01 | 73 | 1014.2 |
| 20260505030356 | 49 | 331 | 1.7 | 6.1 | 0.00 | 0.01 | 0.01 | 74 | 1014.0 |
| 20260505024859 | 49 | 328 | 1.7 | 6.1 | 0.01 | 0.01 | 0.01 | 72 | 1014.1 |
| 20260505022657 | 49 | 336 | 1.7 | 6.1 | 0.01 | 0.01 | 0.01 | 68 | 1014.0 |
| 20260505021159 | 49 | 30 | 4.3 | 10.4 | 0.01 | 0.01 | 0.01 | 67 | 1014.1 |
| 20260505015657 | 50 | 21 | 7.0 | 13.0 | 0.01 | 0.01 | 0.01 | 67 | 1014.3 |
| 20260505014153 | 52 | 345 | 0.9 | 10.4 | 0.00 | 0.00 | 0.00 | 59 | 1013.8 |
| 20260505012653 | 53 | 356 | 5.2 | 13.0 | 0.00 | 0.00 | 0.00 | 58 | 1013.7 |
| 20260505011153 | 54 | 358 | 6.1 | 16.5 | 0.00 | 0.00 | 0.00 | 50 | 1013.6 |
| 20260505005655 | 56 | 300 | 7.0 | 13.9 | 0.00 | 0.00 | 0.00 | 44 | 1013.0 |
| 20260505004842 | 57 | 23 | 7.0 | 13.9 | 0.00 | 0.00 | 0.00 | 38 | 1012.5 |
| 20260505002653 | 58 | 13 | 7.0 | 14.8 | 0.00 | 0.00 | 0.00 | 36 | 1011.9 |
| 20260505001154 | 60 | 34 | 5.2 | 13.0 | 0.00 | 0.00 | 0.00 | 34 | 1011.5 |
| 20260504235653 | 61 | 10 | 7.0 | 16.5 | 0.00 | 0.00 | 0.00 | 32 | 1011.3 |
| 20260504234745 | 62 | 354 | 5.2 | 12.2 | 0.00 | 0.00 | 0.00 | 30 | 1011.3 |
| 20260504234207 | 62 | 19 | 7.8 | 13.0 | 0.00 | 0.00 | 0.00 | 32 | 1011.0 |
| 20260504231149 | 62 | 136 | 1.7 | 7.0 | 0.00 | 0.00 | 0.00 | 31 | 1011.4 |
| 20260504225649 | 62 | 58 | 3.5 | 8.7 | 0.00 | 0.00 | 0.00 | 34 | 1011.3 |
| 20260504224147 | 61 | 158 | 6.1 | 12.2 | 0.00 | 0.00 | 0.00 | 34 | 1011.2 |
| 20260504222645 | 61 | 165 | 3.5 | 13.0 | 0.00 | 0.00 | 0.00 | 34 | 1011.5 |
| 20260504221143 | 62 | 148 | 7.0 | 17.4 | 0.00 | 0.00 | 0.00 | 33 | 1011.3 |
| 20260504215637 | 62 | 214 | 9.6 | 21.7 | 0.00 | 0.00 | 0.00 | 30 | 1011.2 |
| 20260504214139 | 64 | 255 | 4.3 | 13.0 | 0.00 | 0.00 | 0.00 | 26 | 1011.2 |
| 20260504212639 | 65 | 354 | 6.1 | 11.3 | 0.00 | 0.00 | 0.00 | 22 | 1010.9 |
| 20260504211135 | 65 | 328 | 7.8 | 15.6 | 0.00 | 0.00 | 0.00 | 22 | 1010.7 |
| 20260504210330 | 67 | 340 | 4.3 | 11.3 | 0.00 | 0.00 | 0.00 | 20 | 1010.3 |
| 20260504204133 | 67 | 262 | 3.5 | 10.4 | 0.00 | 0.00 | 0.00 | 20 | 1010.7 |
| 20260504202625 | 67 | 266 | 5.2 | 11.3 | 0.00 | 0.00 | 0.00 | 20 | 1011.2 |
| 20260504201837 | 65 | 293 | 7.0 | 14.8 | 0.00 | 0.00 | 0.00 | 22 | 1011.3 |
| 20260504195625 | 66 | 342 | 7.8 | 16.5 | 0.00 | 0.00 | 0.00 | 19 | 1011.5 |
| 20260504194123 | 66 | 337 | 7.0 | 15.6 | 0.00 | 0.00 | 0.00 | 19 | 1011.6 |
| 20260504192623 | 67 | 348 | 3.5 | 12.2 | 0.00 | 0.00 | 0.00 | 16 | 1011.4 |
| 20260504191123 | 67 | 224 | 4.3 | 13.0 | 0.00 | 0.00 | 0.00 | 15 | 1011.5 |
| 20260504185619 | 69 | 259 | 4.3 | 12.2 | 0.00 | 0.00 | 0.00 | 15 | 1011.8 |
| 20260504184812 | 69 | 278 | 4.3 | 14.8 | 0.00 | 0.00 | 0.00 | 15 | 1012.0 |
| 20260504182619 | 68 | 321 | 3.5 | 9.6 | 0.00 | 0.00 | 0.00 | 17 | 1012.3 |